Regional Weather Roundup
Issued by NWS

Home | Current Version | Previous Version | Graphics & Text | Print | Product List | Glossary On
Versions: 1 2 3 4 5 6 7 8 9 10 11 12 13 14 15 16 17 18 19 20 21 22 23 24 25 26 27 28 29 30 31 32 33 34 35 36 37 38 39 40 41 42 43 44 45 46 47 48 49 50
000
ASUS43 KBIS 231610
RWRND
NORTH DAKOTA REGIONAL WEATHER ROUNDUP
NATIONAL WEATHER SERVICE EASTERN NORTH DAKOTA/GRAND FORKS ND
1100 AM CDT WED MAY 23 2018

  NOTE: "FAIR" INDICATES FEW OR NO CLOUDS BELOW 12,000 FEET WITH NO
  SIGNIFICANT WEATHER AND/OR OBSTRUCTIONS TO VISIBILITY.

NDZ001>003-009>011-017-231700-
...NORTHWEST NORTH DAKOTA...

CITY           SKY/WX    TMP DP  RH WIND       PRES   REMARKS
WILLISTON      FAIR      71  58  63 E8        29.90F
MINOT          FAIR      73  58  59 E9        29.93F
MINOT AFB      FAIR      75  58  54 E10       29.92F
$$

NDZ018>021-031>035-040>046-231700-
...SOUTHWEST NORTH DAKOTA...

CITY           SKY/WX    TMP DP  RH WIND       PRES   REMARKS
BISMARCK       FAIR      70  63  78 S3        29.94R
DICKINSON      CLOUDY    64  59  83 SE9       29.91F
GARRISON         N/A     71  63  75 SE14      29.92R
HETTINGER      CLOUDY    65  59  81 SE6       29.93S
$$

NDZ004>008-012>016-024-026-027-054-231700-
...NORTHEAST NORTH DAKOTA...

CITY           SKY/WX    TMP DP  RH WIND       PRES   REMARKS
GRAND FORKS    FAIR      77  62  59 SE12      29.99F
GRAND FORKS AF FAIR      77  61  57 SE10      30.00S
DEVILS LAKE    FAIR      72  61  68 SE12      29.98F
$$

NDZ022-023-025-028>030-036>039-047>053-231700-
...SOUTHEAST NORTH DAKOTA...

CITY           SKY/WX    TMP DP  RH WIND       PRES   REMARKS
JAMESTOWN      FAIR      77  63  61 SE17G24   29.95S
FARGO          FAIR      80  63  55 SE12      29.98S
WAHPETON       FAIR      73  57  56 SE15      30.02R
$$




USA.gov is the U.S. government's official web portal to all federal, state and local government web resources and services.